SCP
0 0 0 0 -0 -0 0 0 0 0 0 0 0 0 0 0 0 0 0 0 -0 -0 -0 -0 -0 -0 -0 -0 -0 -0 0 0 0 0 0 0 0 0
0 0 0 0 0 0 0 -0 0 0 0 0 0 0 0 0 0 0 0 0 0 0 0 0 0 0 -0 -0 -0 -0 0 0 0 0 0 0 0 0
0 0 0 0 0 0 0 0 0 0 0 0 0 0 0 0 0 0 0 0 0 0 -0 -0 0 0 0 -0 0 0 0 0 0 0 0 0 0 0
0 0 0 0 0 0 0 0 0 0 0 0 0 0 0 0 0 0 0 0 0 0 0 0 0 0 0 0 0 0 0 0 0 0 0 0 0 0
0 0 0 0 0 0 0 0 0 0 0 0 0 0 0 0 0 0 0 0 0 0 0 0 0 0 0 0 0 0 0 0 0 0 0 0 0 0
0 0 0 0 0 0 0 0 0 0 0 0 0 0 0 0 0 0 0 0 0 0 0 0 0 0 0 0 0 0 0 0 0 0 0 0 0 0
0 0 0 0 0 0 0 0 0 0 0 0 0 0 0 0 0 0 0 0 0 0 0 0 0 0 0 0 0 0 0 0 0 0 0 0 0 0
0 0 0 0 0 0 0 0 0 0 0 0 0 0 0 0 0 0 0 0 0 0 0 0 0 0 0 0 0 0 0 0 0 0 0 0 0 0
0 0 0 0 0 0 0 0 0 0 0 0 0 0 0 0 0 0 0 0 0 0 0 0 0 0 0 0 0 0 0 0 0 0 0 0 0 0
0 0 0 0 0 0 0 0 0 0 0 0 0 0 0 0 0 0 0 0 0 0 0 0 0 0 0 0 0 0 0 0 0 0 0 0 0 0
0 0 0 0 0 0 0 0 0 0 0 0 0 0 0 0 0 0 0 0 0 0 0 0 0 0 0 0 0 0 0 0 0 0 0 0 0 0
0 0 0 0 0 0 0 0 0 0 0 0 0 0 0 0 0 0 0 0 0 0 0 0 0 0 0 0 0 0 0 0 0 0 0 0 0 0
0 0 0 0 0 0 0 0 0 0 0 0 0 0 0 0 0 0 0 0 0 0 0 0 0 0 0 0 0 0 0 0 0 0 0 0 0 0
0 0 0 0 0 0 0 0 0 0 0 0 0 0 0 0 0 0 0 0 0 0 0 0 0 0 0 0 0 0 0 0 0 0 0 0 0 0
0 0 0 0 0 0 0 0 0 0 0 0 0 0 0 0 0 0 0 0 0 0 0 0 0 0 0 0 0 0 0 0 0 0 0 0 0 0
0 0 0 0 0 0 0 0 0 0 0 0 0 0 0 0 0 0 0 0 0 0 0 0 0 0 0 0 0 0 0 0 0 0 0 0 0 0
0 0 0 0 0 0 0 0 0 0 0 0 0 0 0 0 0 0 0 0 0 0 0 0 0 0 0 0 0 0 0 0 0 0 0 0 0 0
0 0 0 0 0 0 0 0 0 0 0 0 0 0 0 0 0 0 0 0 0 0 0 0 0 0 0 0 0 0 0 0 0 0 0 0 0 0
0 0 0 0 0 0 0 0 0 0 0 0 0 0 0 0 0 0 0 0 0 0 0 0 0 0 0 0 0 0 0 0 0 0 0 0 0 0
0 0 0 0 0 0 0 0 0 0 0 0 0 0 0 0 0 0 0 0 0 0 0 0 0 0 0 0 0 0 0 0 0 0 0 0 0 0
0 0 0 0 0 0 0 0 0 0 0 0 0 0 0 0 0 0 0 0 0 0 0 0 0 0 0 0 0 0 0 0 0 0 0 0 0 0
0 0 0 0 0 0 0 0 0 0 0 0 0 0 0 0 0 0 0 0 0 0 0 0 0 0 0 0 0 0 0 0 0 0 0 0 0 0
0 0 0 0 0 0 0 0 0 0 0 0 0 0 0 0 0 0 0 0 0 0 0 0 0 0 0 0 0 0 0 0 0 0 0 0 0 0
Wind_Speed_500mb
23 26 36 59 72 70 69 72 73 70 63 60 63 44 39 35 33 32 31 30 22 19 15 14 31 35 32 24 20 24 22 18 21 19 17 15 15 14
28 31 34 48 55 62 61 50 57 81 72 62 57 49 35 30 30 27 26 26 21 17 14 10 23 30 29 30 35 23 23 24 20 18 15 14 12 11
32 34 39 43 50 53 44 40 48 64 80 65 57 48 41 35 33 28 24 22 20 17 13 15 12 21 29 26 22 26 25 22 19 16 13 9 7 8
33 36 40 51 47 44 30 36 49 57 70 70 61 53 45 38 31 26 22 22 15 13 9 14 12 10 14 20 22 26 23 19 15 11 8 5 3 6
30 33 39 45 42 46 38 23 34 54 61 67 65 55 49 42 37 31 27 22 15 7 2 4 4 10 17 20 18 17 16 12 11 8 5 3 2 6
28 30 33 38 44 42 40 38 28 52 66 64 65 65 58 51 45 36 28 22 21 10 3 10 10 9 14 21 18 14 16 13 10 9 6 4 1 4
21 29 35 36 35 31 30 32 31 51 64 67 65 62 62 57 47 38 37 30 24 21 16 11 15 16 16 19 20 18 20 17 15 12 9 7 4 4
24 26 33 34 32 29 24 21 23 37 53 70 69 64 61 56 51 46 43 42 34 27 21 16 14 16 17 18 20 19 22 22 20 16 14 11 8 6
26 28 30 31 30 32 29 27 24 28 40 47 59 66 66 55 46 50 40 41 37 27 23 26 20 20 17 17 18 21 25 26 23 21 18 16 12 10
31 29 31 31 32 34 35 37 36 36 36 43 47 67 59 58 47 40 41 41 42 36 25 29 26 25 24 22 23 25 27 30 28 27 24 23 18 15
30 30 33 34 34 35 37 38 41 38 38 32 34 42 67 63 54 41 52 43 46 44 41 34 31 28 25 29 27 25 27 31 35 33 29 27 25 20
32 29 29 31 33 34 38 41 43 42 39 36 37 36 43 53 58 42 42 48 48 49 45 44 38 34 29 27 23 20 25 29 35 36 34 30 32 27
33 26 25 26 28 32 32 37 43 40 42 41 42 39 41 43 46 50 48 45 46 53 48 30 31 34 40 33 26 21 21 24 28 34 36 35 37 33
34 30 28 29 30 29 34 34 43 41 42 47 48 46 47 44 48 50 50 49 50 52 54 52 49 42 38 39 39 30 25 23 26 28 34 39 42 40
36 36 35 34 33 32 28 31 41 46 45 46 56 56 49 38 46 47 44 43 45 49 53 56 57 52 47 46 44 38 32 30 33 30 33 40 43 44
32 34 33 34 34 32 36 40 38 37 43 48 49 48 55 51 49 47 44 43 42 43 49 55 58 59 57 54 52 51 46 39 35 35 33 36 42 47
28 29 28 25 31 29 32 39 37 35 40 43 45 46 51 52 52 49 49 49 53 50 47 51 52 55 60 61 59 57 55 54 49 47 48 47 42 41
25 26 27 26 24 28 30 36 31 41 46 45 46 45 47 50 54 54 49 53 59 57 53 49 51 53 60 64 62 63 60 60 56 57 56 58 56 42
22 20 21 24 21 11 17 25 32 30 33 33 38 43 45 48 53 54 56 55 57 59 59 53 55 57 65 73 69 63 59 57 57 59 60 63 62 53
21 17 16 16 15 13 10 9 11 13 19 28 33 33 38 47 49 51 53 57 57 59 61 63 62 60 63 65 70 69 64 61 60 57 55 55 60 61
20 18 17 16 17 18 19 19 19 17 17 16 22 24 28 30 33 37 41 44 45 48 55 61 59 53 48 50 62 63 59 63 65 64 62 60 62 66
27 24 20 18 17 17 18 18 19 21 24 24 25 23 26 28 31 32 38 43 47 49 52 51 52 50 52 56 62 60 57 58 59 59 61 64 67 68
29 27 26 28 29 31 30 27 26 25 28 26 24 22 25 28 30 31 32 33 36 39 42 44 45 48 53 54 54 54 53 52 54 56 60 58 60 68
Wind_Direction_500mb
130 139 143 144 147 148 143 142 142 133 130 131 128 133 130 128 127 126 122 124 122 118 114 139 174 178 187 197 203 225 176 144 122 119 111 98 94 88
141 148 156 168 164 160 159 160 160 149 144 145 142 144 142 141 137 148 136 134 126 113 95 104 166 183 202 210 220 206 156 137 131 129 126 115 103 94
155 158 165 165 174 179 176 183 180 170 157 152 152 156 162 164 161 163 152 153 134 130 95 86 123 183 198 196 181 157 158 158 150 138 128 127 94 74
169 173 173 179 186 184 181 184 178 177 175 163 163 168 175 176 176 179 170 166 146 134 90 94 124 164 179 186 182 180 176 176 177 169 148 139 48 23
182 181 184 190 192 197 196 183 204 196 195 178 175 183 186 187 190 190 191 185 150 102 145 70 119 192 211 208 223 214 211 203 188 183 168 160 6 358
179 179 185 192 194 209 214 221 221 201 198 195 186 188 192 190 198 201 200 197 196 163 248 283 298 303 249 233 241 224 225 219 208 206 201 221 281 334
180 187 191 199 204 212 212 214 213 205 204 203 200 199 199 202 200 206 212 212 214 207 197 243 279 299 286 250 245 240 230 223 224 222 224 235 262 304
184 184 182 191 195 196 205 216 230 217 214 214 211 213 217 212 207 209 215 217 217 225 229 232 245 273 296 273 256 244 233 233 234 229 238 244 252 275
190 191 192 199 212 220 222 225 215 217 234 238 232 230 227 225 214 221 228 231 231 233 230 245 246 261 284 290 264 247 239 240 240 242 243 250 250 260
208 208 211 214 220 227 229 227 229 220 228 231 242 241 238 232 222 234 230 230 228 232 233 241 252 257 264 288 285 257 247 242 243 246 247 254 252 256
224 226 221 222 225 230 236 238 240 233 229 226 235 241 239 237 229 244 233 236 240 246 244 240 250 261 256 268 277 267 251 245 243 245 249 254 255 254
224 230 231 224 227 234 243 244 242 249 239 221 231 231 237 237 239 243 244 249 250 248 249 245 254 252 258 267 265 277 265 257 251 247 249 255 259 256
229 234 231 228 233 236 240 248 245 251 228 236 232 229 230 231 238 237 248 244 254 246 248 245 249 252 248 253 273 289 288 265 260 254 252 257 262 261
222 228 234 237 238 243 243 246 245 239 246 231 232 232 232 240 239 244 255 253 252 246 247 248 254 257 261 262 263 266 285 296 283 269 259 257 257 259
217 223 228 241 244 240 245 247 244 239 239 237 236 241 231 247 259 250 256 250 251 249 241 243 251 253 256 259 261 262 266 278 286 284 264 257 255 255
213 222 232 245 240 245 242 248 239 243 249 249 247 239 238 245 249 251 250 247 247 251 248 249 252 252 255 259 259 262 263 261 273 284 286 265 259 257
212 220 234 246 245 243 250 241 250 247 257 251 246 244 244 243 248 256 248 248 251 253 258 256 257 256 256 258 261 264 262 262 267 268 273 282 271 267
216 225 232 229 245 255 251 254 250 247 256 256 250 245 244 245 248 253 258 256 254 253 255 257 256 256 260 262 260 262 262 261 261 264 266 270 276 276
219 239 249 244 236 253 278 252 255 240 253 268 257 250 248 249 252 253 255 259 263 258 256 257 260 258 258 261 271 269 263 266 266 263 266 268 275 280
210 220 220 217 224 233 253 279 288 277 265 260 260 259 259 261 259 262 263 263 267 268 265 265 267 268 266 271 274 278 277 273 270 272 269 269 270 270
206 215 219 224 226 231 246 263 267 267 270 273 278 271 261 263 268 268 269 267 266 268 270 272 277 283 278 272 269 273 277 276 275 271 268 267 265 265
217 223 223 227 234 240 245 250 260 275 277 272 267 266 268 269 268 267 268 268 268 269 272 273 276 277 273 271 275 278 277 277 277 276 270 265 264 266
216 222 228 240 247 254 259 263 267 273 272 275 270 264 265 267 268 271 274 276 277 277 276 275 274 274 275 276 278 278 278 277 277 278 278 275 271 268
Wind_Speed_850mb
23 26 36 59 72 70 69 72 73 70 63 60 63 44 39 35 33 32 31 30 22 19 15 14 31 35 32 24 20 24 22 18 21 19 17 15 15 14
28 31 34 48 55 62 61 50 57 81 72 62 57 49 35 30 30 27 26 26 21 17 14 10 23 30 29 30 35 23 23 24 20 18 15 14 12 11
32 34 39 43 50 53 44 40 48 64 80 65 57 48 41 35 33 28 24 22 20 17 13 15 12 21 29 26 22 26 25 22 19 16 13 9 7 8
33 36 40 51 47 44 30 36 49 57 70 70 61 53 45 38 31 26 22 22 15 13 9 14 12 10 14 20 22 26 23 19 15 11 8 5 3 6
30 33 39 45 42 46 38 23 34 54 61 67 65 55 49 42 37 31 27 22 15 7 2 4 4 10 17 20 18 17 16 12 11 8 5 3 2 6
28 30 33 38 44 42 40 38 28 52 66 64 65 65 58 51 45 36 28 22 21 10 3 10 10 9 14 21 18 14 16 13 10 9 6 4 1 4
21 29 35 36 35 31 30 32 31 51 64 67 65 62 62 57 47 38 37 30 24 21 16 11 15 16 16 19 20 18 20 17 15 12 9 7 4 4
24 26 33 34 32 29 24 21 23 37 53 70 69 64 61 56 51 46 43 42 34 27 21 16 14 16 17 18 20 19 22 22 20 16 14 11 8 6
26 28 30 31 30 32 29 27 24 28 40 47 59 66 66 55 46 50 40 41 37 27 23 26 20 20 17 17 18 21 25 26 23 21 18 16 12 10
31 29 31 31 32 34 35 37 36 36 36 43 47 67 59 58 47 40 41 41 42 36 25 29 26 25 24 22 23 25 27 30 28 27 24 23 18 15
30 30 33 34 34 35 37 38 41 38 38 32 34 42 67 63 54 41 52 43 46 44 41 34 31 28 25 29 27 25 27 31 35 33 29 27 25 20
32 29 29 31 33 34 38 41 43 42 39 36 37 36 43 53 58 42 42 48 48 49 45 44 38 34 29 27 23 20 25 29 35 36 34 30 32 27
33 26 25 26 28 32 32 37 43 40 42 41 42 39 41 43 46 50 48 45 46 53 48 30 31 34 40 33 26 21 21 24 28 34 36 35 37 33
34 30 28 29 30 29 34 34 43 41 42 47 48 46 47 44 48 50 50 49 50 52 54 52 49 42 38 39 39 30 25 23 26 28 34 39 42 40
36 36 35 34 33 32 28 31 41 46 45 46 56 56 49 38 46 47 44 43 45 49 53 56 57 52 47 46 44 38 32 30 33 30 33 40 43 44
32 34 33 34 34 32 36 40 38 37 43 48 49 48 55 51 49 47 44 43 42 43 49 55 58 59 57 54 52 51 46 39 35 35 33 36 42 47
28 29 28 25 31 29 32 39 37 35 40 43 45 46 51 52 52 49 49 49 53 50 47 51 52 55 60 61 59 57 55 54 49 47 48 47 42 41
25 26 27 26 24 28 30 36 31 41 46 45 46 45 47 50 54 54 49 53 59 57 53 49 51 53 60 64 62 63 60 60 56 57 56 58 56 42
22 20 21 24 21 11 17 25 32 30 33 33 38 43 45 48 53 54 56 55 57 59 59 53 55 57 65 73 69 63 59 57 57 59 60 63 62 53
21 17 16 16 15 13 10 9 11 13 19 28 33 33 38 47 49 51 53 57 57 59 61 63 62 60 63 65 70 69 64 61 60 57 55 55 60 61
20 18 17 16 17 18 19 19 19 17 17 16 22 24 28 30 33 37 41 44 45 48 55 61 59 53 48 50 62 63 59 63 65 64 62 60 62 66
27 24 20 18 17 17 18 18 19 21 24 24 25 23 26 28 31 32 38 43 47 49 52 51 52 50 52 56 62 60 57 58 59 59 61 64 67 68
29 27 26 28 29 31 30 27 26 25 28 26 24 22 25 28 30 31 32 33 36 39 42 44 45 48 53 54 54 54 53 52 54 56 60 58 60 68
Wind_Direction_850mb
130 139 143 144 147 148 143 142 142 133 130 131 128 133 130 128 127 126 122 124 122 118 114 139 174 178 187 197 203 225 176 144 122 119 111 98 94 88
141 148 156 168 164 160 159 160 160 149 144 145 142 144 142 141 137 148 136 134 126 113 95 104 166 183 202 210 220 206 156 137 131 129 126 115 103 94
155 158 165 165 174 179 176 183 180 170 157 152 152 156 162 164 161 163 152 153 134 130 95 86 123 183 198 196 181 157 158 158 150 138 128 127 94 74
169 173 173 179 186 184 181 184 178 177 175 163 163 168 175 176 176 179 170 166 146 134 90 94 124 164 179 186 182 180 176 176 177 169 148 139 48 23
182 181 184 190 192 197 196 183 204 196 195 178 175 183 186 187 190 190 191 185 150 102 145 70 119 192 211 208 223 214 211 203 188 183 168 160 6 358
179 179 185 192 194 209 214 221 221 201 198 195 186 188 192 190 198 201 200 197 196 163 248 283 298 303 249 233 241 224 225 219 208 206 201 221 281 334
180 187 191 199 204 212 212 214 213 205 204 203 200 199 199 202 200 206 212 212 214 207 197 243 279 299 286 250 245 240 230 223 224 222 224 235 262 304
184 184 182 191 195 196 205 216 230 217 214 214 211 213 217 212 207 209 215 217 217 225 229 232 245 273 296 273 256 244 233 233 234 229 238 244 252 275
190 191 192 199 212 220 222 225 215 217 234 238 232 230 227 225 214 221 228 231 231 233 230 245 246 261 284 290 264 247 239 240 240 242 243 250 250 260
208 208 211 214 220 227 229 227 229 220 228 231 242 241 238 232 222 234 230 230 228 232 233 241 252 257 264 288 285 257 247 242 243 246 247 254 252 256
224 226 221 222 225 230 236 238 240 233 229 226 235 241 239 237 229 244 233 236 240 246 244 240 250 261 256 268 277 267 251 245 243 245 249 254 255 254
224 230 231 224 227 234 243 244 242 249 239 221 231 231 237 237 239 243 244 249 250 248 249 245 254 252 258 267 265 277 265 257 251 247 249 255 259 256
229 234 231 228 233 236 240 248 245 251 228 236 232 229 230 231 238 237 248 244 254 246 248 245 249 252 248 253 273 289 288 265 260 254 252 257 262 261
222 228 234 237 238 243 243 246 245 239 246 231 232 232 232 240 239 244 255 253 252 246 247 248 254 257 261 262 263 266 285 296 283 269 259 257 257 259
217 223 228 241 244 240 245 247 244 239 239 237 236 241 231 247 259 250 256 250 251 249 241 243 251 253 256 259 261 262 266 278 286 284 264 257 255 255
213 222 232 245 240 245 242 248 239 243 249 249 247 239 238 245 249 251 250 247 247 251 248 249 252 252 255 259 259 262 263 261 273 284 286 265 259 257
212 220 234 246 245 243 250 241 250 247 257 251 246 244 244 243 248 256 248 248 251 253 258 256 257 256 256 258 261 264 262 262 267 268 273 282 271 267
216 225 232 229 245 255 251 254 250 247 256 256 250 245 244 245 248 253 258 256 254 253 255 257 256 256 260 262 260 262 262 261 261 264 266 270 276 276
219 239 249 244 236 253 278 252 255 240 253 268 257 250 248 249 252 253 255 259 263 258 256 257 260 258 258 261 271 269 263 266 266 263 266 268 275 280
210 220 220 217 224 233 253 279 288 277 265 260 260 259 259 261 259 262 263 263 267 268 265 265 267 268 266 271 274 278 277 273 270 272 269 269 270 270
206 215 219 224 226 231 246 263 267 267 270 273 278 271 261 263 268 268 269 267 266 268 270 272 277 283 278 272 269 273 277 276 275 271 268 267 265 265
217 223 223 227 234 240 245 250 260 275 277 272 267 266 268 269 268 267 268 268 268 269 272 273 276 277 273 271 275 278 277 277 277 276 270 265 264 266
216 222 228 240 247 254 259 263 267 273 272 275 270 264 265 267 268 271 274 276 277 277 276 275 274 274 275 276 278 278 278 277 277 278 278 275 271 268